This demonstration page uses our WeatherBlox Daily Observations layout. Learn more.

Left ArrowRight Arrow

41.12389, -100.76542

Hourly Observations for March 24, 2019

Temp ( °F °C ) Dew Point ( °F °C ) Humidity (%) Winds ( mph kmh ) Pressure ( in mb ) Visibility ( mi km ) Precip ( " mm )
12:46 am 00:46 Cloudy 43 6.1 40 4.4 89 89 NNW 10 17 30.01 1016 10 16 0.00 0.00
12:53 am 00:53 Cloudy 43 6.1 40 4.4 89 89 N 9 15 29.98 1015 10 16 0.00 0.00
1:53 am 01:53 Cloudy 43 6.1 39 3.9 86 86 NNE 5 7 29.98 1015 10 16 0.00 0.00
2:19 am 02:19 Cloudy 42 5.6 39 3.9 89 89 NNE 5 7 30.01 1016 9 14 0.00 0.00
2:31 am 02:31 Cloudy 42 5.6 39 3.9 89 89 N 6 9 30.02 1017 9 14 0.00 0.00
2:53 am 02:53 Cloudy 42 5.6 39 3.9 89 89 NNW 9 15 30.00 1016 8 13 0.00 0.00
3:27 am 03:27 Cloudy 42 5.6 39 3.9 89 89 N 8 13 30.02 1017 10 16 0.00 0.00
3:53 am 03:53 Cloudy 42 5.6 39 3.9 89 89 N 5 7 30.00 1016 10 16 0.00 0.00
4:53 am 04:53 Cloudy 42 5.6 38 3.3 85 85 N 9 15 30.01 1016 9 14 0.00 0.00
5:04 am 05:04 Cloudy 42 5.6 39 3.9 89 89 N 8 13 30.04 1017 9 14 0.00 0.00
5:53 am 05:53 Cloudy 42 5.6 39 3.9 89 89 NW 8 13 30.03 1017 8 13 0.00 0.00
6:53 am 06:53 Cloudy 42 5.6 39 3.9 89 89 N 9 15 30.03 1017 9 14 0.00 0.00
7:53 am 07:53 Mostly Cloudy 42 5.6 38 3.3 85 85 N 9 15 30.04 1017 9 14 0.00 0.00
8:53 am 08:53 Cloudy 43 6.1 39 3.9 86 86 NNW 5 7 30.06 1018 9 14 0.00 0.00
9:53 am 09:53 Cloudy 46 7.8 39 3.9 77 77 NNE 7 11 30.08 1019 10 16 0.00 0.00
10:53 am 10:53 Cloudy 46 7.8 38 3.3 73 73 ENE 13 20 30.11 1020 10 16 0.00 0.00
11:53 am 11:53 Cloudy 46 7.8 38 3.3 73 73 NE 6 9 30.13 1020 10 16 0.00 0.00
12:53 pm 12:53 Cloudy 46 7.8 38 3.3 73 73 ENE 6 9 30.14 1021 9 14 0.00 0.00
1:53 pm 13:53 Cloudy 47 8.3 39 3.9 74 74 NE 7 11 30.13 1020 8 13 0.00 0.00
2:53 pm 14:53 Cloudy 50 10 40 4.4 68 68 ENE 9 15 30.12 1020 9 14 0.00 0.00
3:53 pm 15:53 Cloudy 52 11.1 39 3.9 61 61 ENE 7 11 30.12 1020 10 16 0.00 0.00
4:53 pm 16:53 Cloudy 53 11.7 39 3.9 59 59 NE 7 11 30.11 1020 10 16 0.00 0.00
5:53 pm 17:53 Cloudy 54 12.2 38 3.3 55 55 NNE 5 7 30.12 1020 10 16 0.00 0.00
6:53 pm 18:53 Mostly Cloudy 52 11.1 39 3.9 61 61 NE 9 15 30.14 1021 10 16 0.00 0.00
7:53 pm 19:53 Cloudy 50 10 38 3.3 63 63 NE 7 11 30.17 1022 10 16 0.00 0.00
8:53 pm 20:53 Cloudy 49 9.4 37 2.8 64 64 ENE 6 9 30.19 1022 10 16 0.00 0.00
9:53 pm 21:53 Cloudy 47 8.3 37 2.8 69 69 E 6 9 30.22 1023 10 16 0.00 0.00
10:53 pm 22:53 Cloudy 46 7.8 37 2.8 71 71 E 13 20 30.24 1024 10 16 0.00 0.00
11:53 pm 23:53 Cloudy 44 6.7 37 2.8 76 76 SSE 5 7 30.26 1025 10 16 0.00 0.00

Powered by AerisWeather